period_start,C,m1,H,J0,J1,J2,J3,J4,J5,JA,JB,JC,JD,JJ,JK,JN,#
2014-04-30 00:00:08,0.03,2.16,0.00,14.26,21.57,22.97,6.38,31.75,1012.21,2059.82,2566.97,2822.00,3019.99,351.26,333.46,26.57,0000 0000 0000 0000 000000
2014-04-30 00:01:08,0.06,2.16,0.00,14.37,21.57,22.96,6.28,31.67,1012.20,2059.80,2566.96,2822.00,3019.98,350.19,332.42,26.57,0000 0000 0000 0000 000000
2014-04-30 00:02:09,-0.05,2.16,0.00,14.46,21.57,22.97,6.20,31.67,1012.21,2059.77,2566.87,2822.00,3019.99,350.11,332.46,26.58,0000 0000 0000 0000 000000
2014-04-30 00:03:09,-0.01,2.16,0.00,14.52,21.57,22.98,6.17,31.63,1012.22,2059.80,2566.55,2822.00,3019.97,349.87,332.05,26.59,0000 0000 0000 0000 000000
2014-04-30 00:04:09,0.13,2.16,0.00,14.54,21.57,22.98,6.37,31.79,1012.22,2059.83,2566.28,2822.00,3019.95,350.90,332.89,26.59,0000 0000 0000 0000 000000
2014-04-30 00:05:09,0.06,2.16,0.00,14.54,21.57,22.97,6.19,31.67,1012.22,2059.84,2566.15,2821.99,3019.88,349.34,331.42,26.60,0000 0000 0000 0000 000000
2014-04-30 00:06:10,0.04,2.16,0.00,14.55,21.57,22.97,6.26,31.46,1012.22,2059.80,2566.08,2821.99,3019.73,350.11,332.46,26.60,0000 0000 0000 0000 000000
2014-04-30 00:07:10,0.00,2.16,0.00,14.52,21.57,22.96,6.15,31.71,1012.21,2059.84,2566.05,2821.99,3019.63,349.46,331.55,26.61,0000 0000 0000 0000 000000
2014-04-30 00:08:10,0.03,2.16,0.00,14.38,21.57,22.97,6.37,31.88,1012.20,2059.89,2566.04,2821.98,3019.51,350.77,332.95,26.62,0000 0000 0000 0000 000000
2014-04-30 00:09:10,0.07,2.16,0.00,14.29,21.57,22.98,6.13,31.71,1012.20,2059.91,2566.03,2821.95,3019.47,349.93,332.27,26.62,0000 0000 0000 0000 000000
2014-04-30 00:10:11,0.03,2.16,0.00,14.26,21.57,22.98,6.08,31.79,1012.21,2059.96,2566.01,2821.93,3019.23,349.54,331.93,26.63,0000 0000 0000 0000 000000
2014-04-30 00:11:11,0.10,2.16,0.00,14.23,21.57,22.97,6.08,31.83,1012.22,2059.98,2566.00,2821.89,3019.11,349.71,331.88,26.63,0000 0000 0000 0000 000000
2014-04-30 00:12:11,0.02,2.16,0.00,14.20,21.57,22.98,6.12,31.67,1012.21,2059.98,2565.99,2821.73,3019.07,349.94,332.14,26.64,0000 0000 0000 0000 000000
2014-04-30 00:13:12,0.08,2.16,0.00,14.18,21.57,22.97,6.19,31.67,1012.21,2059.97,2565.96,2821.57,3019.03,350.49,332.93,26.64,0000 0000 0000 0000 000000
2014-04-30 00:14:12,0.02,2.16,0.00,14.21,21.57,22.99,6.27,31.79,1012.21,2059.98,2565.85,2821.35,3019.01,349.42,331.87,26.65,0000 0000 0000 0000 000000
2014-04-30 00:15:12,0.10,2.16,0.00,14.27,21.56,22.97,6.26,31.67,1012.22,2059.96,2565.79,2821.19,3019.00,350.20,332.55,26.66,0000 0000 0000 0000 000000
2014-04-30 00:16:12,0.04,2.16,0.00,14.35,21.56,22.97,6.19,31.63,1012.22,2059.96,2565.56,2821.09,3019.00,350.05,332.32,26.66,0000 0000 0000 0000 000000
2014-04-30 00:17:12,0.05,2.16,0.00,14.42,21.56,22.97,6.29,31.75,1012.22,2059.96,2565.67,2821.04,3019.00,350.47,332.38,26.67,0000 0000 0000 0000 000000
2014-04-30 00:18:13,-0.02,2.16,0.00,14.51,21.56,22.98,6.24,31.67,1012.22,2059.94,2565.63,2821.04,3019.00,350.09,332.15,26.67,0000 0000 0000 0000 000000
2014-04-30 00:19:13,0.01,2.16,0.00,14.50,21.56,22.99,6.10,31.79,1012.22,2059.95,2565.31,2821.01,3019.00,349.88,331.81,26.68,0000 0000 0000 0000 000000
2014-04-30 00:20:13,0.07,2.16,0.00,14.47,21.56,22.98,6.11,31.58,1012.22,2059.96,2565.14,2821.00,3018.99,350.29,332.30,26.69,0000 0000 0000 0000 000000
2014-04-30 00:21:13,0.05,2.16,0.00,14.46,21.56,22.98,6.06,31.71,1012.22,2059.96,2565.09,2821.00,3018.97,348.78,331.36,26.69,0000 0000 0000 0000 000000
2014-04-30 00:22:14,0.00,2.16,0.00,14.48,21.55,22.97,6.22,31.54,1012.22,2059.97,2565.03,2821.00,3018.97,350.31,332.59,26.70,0000 0000 0000 0000 000000
2014-04-30 00:23:14,0.02,2.16,0.00,14.46,21.55,22.98,6.18,31.58,1012.22,2059.97,2565.01,2821.00,3018.97,349.47,331.90,26.70,0000 0000 0000 0000 000000
2014-04-30 00:24:14,0.00,2.16,0.00,14.44,21.55,23.00,6.35,32.04,1012.22,2059.97,2565.00,2821.00,3018.96,349.81,331.89,26.71,0000 0000 0000 0000 000000
2014-04-30 00:25:14,0.00,2.16,0.00,14.40,21.55,23.01,6.26,32.00,1012.22,2059.94,2565.00,2821.00,3018.77,350.81,332.98,26.71,0000 0000 0000 0000 000000
2014-04-30 00:26:14,0.01,2.16,0.00,14.33,21.55,22.99,6.15,32.00,1012.22,2059.93,2565.00,2821.00,3018.56,349.74,332.12,26.72,0000 0000 0000 0000 000000
2014-04-30 00:27:15,0.01,2.16,0.00,14.33,21.55,22.98,6.22,31.96,1012.22,2059.91,2565.00,2820.99,3018.36,349.41,331.88,26.73,0000 0000 0000 0000 000000
2014-04-30 00:28:15,0.02,2.16,0.00,14.40,21.55,22.98,6.25,31.54,1012.22,2059.93,2564.98,2820.97,3018.18,350.73,332.92,26.73,0000 0000 0000 0000 000000
2014-04-30 00:29:15,0.05,2.16,0.00,14.44,21.55,22.98,6.37,31.71,1012.22,2059.97,2564.99,2820.98,3018.18,350.58,332.30,26.74,0000 0000 0000 0000 000000
2014-04-30 00:30:15,0.02,2.17,0.00,14.49,21.55,23.00,6.06,31.58,1012.22,2059.96,2564.97,2820.98,3018.10,349.76,332.03,26.74,0000 0000 0000 0000 000000
2014-04-30 00:31:16,0.01,2.17,0.00,14.56,21.55,23.00,6.12,31.71,1012.22,2059.96,2564.97,2820.97,3018.07,349.05,331.22,26.75,0000 0000 0000 0000 000000
2014-04-30 00:32:16,-0.01,2.17,0.00,14.60,21.55,23.03,6.19,31.75,1012.22,2059.96,2564.94,2820.97,3018.12,349.92,332.07,26.76,0000 0000 0000 0000 000000
2014-04-30 00:33:16,0.01,2.17,0.00,14.62,21.55,23.00,6.23,31.67,1012.22,2059.96,2564.78,2820.93,3018.08,350.01,331.74,26.76,0000 0000 0000 0000 000000
2014-04-30 00:34:16,0.05,2.17,0.00,14.62,21.55,23.00,6.27,31.67,1012.22,2059.97,2564.49,2820.77,3018.04,350.71,332.74,26.77,0000 0000 0000 0000 000000
2014-04-30 00:35:16,0.12,2.17,0.00,14.58,21.55,23.02,6.27,31.63,1012.22,2059.99,2564.36,2820.56,3018.02,349.48,331.65,26.77,0000 0000 0000 0000 000000
2014-04-30 00:36:17,0.09,2.17,0.00,14.45,21.55,23.01,6.31,31.67,1012.22,2059.98,2564.22,2820.42,3018.00,350.19,332.33,26.78,0000 0000 0000 0000 000000
2014-04-30 00:37:17,0.05,2.17,0.00,14.37,21.56,23.01,6.17,31.63,1012.22,2059.97,2564.10,2820.29,3018.00,349.54,331.81,26.79,0000 0000 0000 0000 000000
2014-04-30 00:38:17,0.05,2.17,0.00,14.33,21.56,23.00,6.23,31.71,1012.22,2059.96,2564.03,2820.15,3018.00,350.53,332.79,26.79,0000 0000 0000 0000 000000
2014-04-30 00:39:18,0.04,2.17,0.00,14.29,21.56,23.00,6.16,31.50,1012.22,2059.98,2564.02,2820.08,3017.99,350.17,332.50,26.80,0000 0000 0000 0000 000000
2014-04-30 00:40:18,0.04,2.17,0.00,14.28,21.56,22.99,6.14,31.75,1012.22,2059.97,2564.01,2820.07,3017.99,349.35,331.76,26.80,0000 0000 0000 0000 000000
2014-04-30 00:41:18,-0.01,2.17,0.00,14.31,21.56,22.98,6.06,31.75,1012.22,2059.97,2564.00,2820.04,3017.98,349.08,331.73,26.81,0000 0000 0000 0000 000000
2014-04-30 00:42:19,0.01,2.17,0.00,14.33,21.56,22.95,6.19,31.63,1012.22,2059.96,2564.00,2820.01,3017.98,349.71,331.99,26.81,0000 0000 0000 0000 000000
2014-04-30 00:43:19,-0.01,2.17,0.00,14.36,21.56,22.97,6.28,31.71,1012.22,2059.97,2564.00,2820.00,3017.97,349.65,331.97,26.82,0000 0000 0000 0000 000000
2014-04-30 00:44:19,0.02,2.17,0.00,14.43,21.56,23.01,6.15,31.71,1012.22,2059.97,2564.00,2820.00,3017.96,350.28,332.35,26.83,0000 0000 0000 0000 000000
2014-04-30 00:45:20,0.00,2.17,0.00,14.49,21.56,23.00,6.07,31.71,1012.22,2059.97,2563.99,2820.00,3017.91,350.04,332.10,26.83,0000 0000 0000 0000 000000
2014-04-30 00:46:20,0.02,2.17,0.00,14.52,21.56,23.00,6.14,31.46,1012.22,2059.97,2563.97,2820.00,3017.84,350.43,332.49,26.84,0000 0000 0000 0000 000000
2014-04-30 00:47:20,0.01,2.17,0.00,14.56,21.56,23.00,6.28,31.63,1012.22,2059.98,2563.95,2820.00,3017.73,350.52,332.52,26.84,0000 0000 0000 0000 000000
2014-04-30 00:48:20,0.03,2.17,0.00,14.62,21.57,23.02,6.20,31.79,1012.22,2059.98,2563.95,2820.00,3017.49,349.46,331.14,26.85,0000 0000 0000 0000 000000
2014-04-30 00:49:21,0.03,2.17,0.00,14.67,21.56,23.02,6.24,31.92,1012.22,2059.99,2563.88,2820.00,3017.46,350.98,333.12,26.86,0000 0000 0000 0000 000000
2014-04-30 00:50:21,0.02,2.17,0.00,14.70,21.57,23.01,6.20,31.54,1012.22,2059.97,2563.67,2820.00,3017.26,349.73,331.73,26.86,0000 0000 0000 0000 000000
2014-04-30 00:51:21,0.05,2.17,0.00,14.60,21.57,23.02,6.19,31.67,1012.22,2059.99,2563.68,2820.00,3017.18,350.48,332.07,26.87,0000 0000 0000 0000 000000
2014-04-30 00:52:22,0.02,2.17,0.00,14.51,21.57,23.01,6.20,31.67,1012.22,2059.97,2563.41,2820.00,3017.08,350.37,332.43,26.87,0000 0000 0000 0000 000000
2014-04-30 00:53:22,0.06,2.17,0.00,14.47,21.57,23.04,6.30,31.83,1012.22,2059.97,2563.18,2819.97,3017.03,350.43,332.54,26.88,0000 0000 0000 0000 000000
2014-04-30 00:54:22,0.05,2.17,0.00,14.44,21.57,23.04,6.15,31.67,1012.22,2059.98,2563.07,2819.95,3017.01,349.30,331.51,26.88,0000 0000 0000 0000 000000
2014-04-30 00:55:23,0.02,2.17,0.00,14.46,21.57,23.01,6.17,31.79,1012.22,2059.97,2563.03,2819.91,3017.00,350.33,332.46,26.89,0000 0000 0000 0000 000000
2014-04-30 00:56:23,0.01,2.17,0.00,14.49,21.57,23.02,6.44,31.92,1012.22,2059.96,2563.01,2819.87,3017.00,350.74,333.12,26.90,0000 0000 0000 0000 000000
2014-04-30 00:57:23,0.02,2.17,0.00,14.53,21.57,23.04,6.25,31.88,1012.21,2059.97,2563.00,2819.73,3017.00,350.20,332.32,26.90,0000 0000 0000 0000 000000
2014-04-30 00:58:24,0.05,2.17,0.00,14.51,21.57,23.06,6.15,31.50,1012.22,2059.97,2563.00,2819.47,3017.00,350.39,332.44,26.91,0000 0000 0000 0000 000000
2014-04-30 00:59:24,0.06,2.17,0.00,14.57,21.57,23.06,6.34,31.63,1012.22,2059.96,2563.00,2819.28,3016.99,350.86,332.84,26.91,0000 0000 0000 0000 000000
2014-04-30 01:00:24,0.04,2.17,0.00,14.58,21.57,23.05,6.29,31.67,1012.21,2059.98,2563.00,2819.16,3016.99,349.90,331.91,26.92,0000 0000 0000 0000 000000
2014-04-30 01:01:24,0.04,2.17,0.00,14.57,21.57,23.04,6.33,31.71,1012.22,2059.98,2562.99,2819.10,3016.99,350.55,332.12,26.93,0000 0000 0000 0000 000000
2014-04-30 01:02:25,0.02,2.17,0.00,14.53,21.57,23.01,6.18,31.63,1012.22,2059.96,2562.91,2819.04,3016.97,350.02,332.07,26.93,0000 0000 0000 0000 000000
2014-04-30 01:03:25,0.02,2.17,0.00,14.52,21.57,23.04,6.29,31.67,1012.21,2059.96,2562.76,2819.02,3016.94,350.33,332.47,26.94,0000 0000 0000 0000 000000
2014-04-30 01:04:25,0.05,2.17,0.00,14.44,21.57,23.05,6.18,31.54,1012.13,2059.97,2562.44,2819.01,3016.86,349.59,331.79,26.94,0000 0000 0000 0000 000000
2014-04-30 01:05:26,0.08,2.17,0.00,14.37,21.57,23.05,6.13,31.63,1012.09,2059.96,2562.21,2819.00,3016.56,350.46,332.86,26.95,0000 0000 0000 0000 000000
2014-04-30 01:06:26,0.06,2.17,0.00,14.36,21.57,23.01,6.03,31.63,1012.09,2059.91,2562.09,2819.00,3016.30,348.68,331.31,26.96,0000 0000 0000 0000 000000
2014-04-30 01:07:26,0.02,2.17,0.00,14.39,21.57,23.02,6.13,31.63,1012.07,2059.89,2562.05,2819.00,3016.14,349.59,332.02,26.96,0000 0000 0000 0000 000000
2014-04-30 01:08:26,0.04,2.17,0.00,14.42,21.57,23.02,6.33,31.63,1012.05,2059.92,2562.01,2819.00,3016.07,349.46,331.81,26.97,0000 0000 0000 0000 000000
2014-04-30 01:09:27,0.02,2.17,0.00,14.39,21.57,23.03,6.28,31.75,1012.06,2059.94,2562.00,2819.00,3016.04,349.82,331.99,26.97,0000 0000 0000 0000 000000
2014-04-30 01:10:27,0.01,2.17,0.00,14.43,21.57,23.04,6.23,31.71,1012.10,2059.96,2562.00,2819.00,3016.06,349.57,331.73,26.98,0000 0000 0000 0000 000000
2014-04-30 01:11:27,0.03,2.17,0.00,14.51,21.57,23.05,6.27,31.79,1012.08,2059.96,2562.00,2819.00,3016.04,350.12,332.16,26.98,0000 0000 0000 0000 000000
2014-04-30 01:12:28,0.00,2.17,0.00,14.55,21.57,23.04,6.02,31.50,1012.11,2059.97,2562.00,2818.99,3016.03,348.90,330.97,26.99,0000 0000 0000 0000 000000
2014-04-30 01:13:28,0.01,2.17,0.00,14.60,21.57,23.04,6.18,31.67,1012.13,2059.97,2562.00,2818.98,3016.00,350.06,332.01,27.00,0000 0000 0000 0000 000000
2014-04-30 01:14:28,0.00,2.17,0.00,14.68,21.57,23.05,6.28,31.54,1012.08,2059.97,2561.95,2818.97,3016.00,350.60,332.39,27.00,0000 0000 0000 0000 000000
2014-04-30 01:15:28,0.01,2.17,0.00,14.73,21.57,23.05,6.04,31.75,1012.05,2059.98,2561.92,2818.95,3016.00,349.58,331.44,27.01,0000 0000 0000 0000 000000
2014-04-30 01:16:29,0.03,2.17,0.00,14.74,21.57,23.06,6.18,31.50,1012.13,2059.99,2561.93,2818.90,3016.00,350.48,332.16,27.01,0000 0000 0000 0000 000000
2014-04-30 01:17:29,0.01,2.17,0.00,14.76,21.57,23.04,6.12,31.63,1012.15,2059.97,2561.91,2818.84,3016.00,349.91,331.98,27.02,0000 0000 0000 0000 000000
2014-04-30 01:18:29,0.02,2.17,0.00,14.66,21.57,22.97,6.01,31.67,1012.08,2059.94,2561.59,2818.70,3016.00,349.41,330.98,27.03,0000 0000 0000 0000 000000
2014-04-30 01:19:29,0.05,2.17,0.00,14.61,21.57,23.02,6.35,31.63,1012.07,2059.94,2561.49,2818.65,3016.00,350.96,332.83,27.03,0000 0000 0000 0000 000000
2014-04-30 01:20:29,0.05,2.17,0.00,14.59,21.57,23.03,6.17,31.50,1012.02,2059.97,2561.46,2818.52,3016.00,350.44,332.25,27.04,0000 0000 0000 0000 000000
2014-04-30 01:21:30,0.06,2.18,0.00,14.56,21.58,23.03,6.08,31.63,1012.05,2059.98,2561.42,2818.38,3016.00,349.33,331.33,27.04,0000 0000 0000 0000 000000
2014-04-30 01:22:30,0.04,2.18,0.00,14.53,21.58,23.05,6.27,31.79,1012.11,2059.99,2561.21,2818.20,3015.99,350.27,332.27,27.05,0000 0000 0000 0000 000000
2014-04-30 01:23:30,0.09,2.18,0.00,14.56,21.58,23.05,6.06,31.54,1012.12,2059.97,2561.09,2818.13,3015.99,349.25,331.57,27.05,0000 0000 0000 0000 000000
2014-04-30 01:24:31,0.04,2.18,0.00,14.58,21.59,23.06,6.23,31.96,1012.14,2059.97,2561.04,2818.05,3015.94,349.12,331.31,27.06,0000 0000 0000 0000 000000
2014-04-30 01:25:31,0.02,2.18,0.00,14.61,21.59,23.02,6.27,31.96,1012.19,2059.92,2561.02,2818.01,3015.82,350.84,332.73,27.07,0000 0000 0000 0000 000000
2014-04-30 01:26:31,0.01,2.18,0.00,14.67,21.59,23.01,6.24,31.88,1012.18,2059.92,2561.01,2818.00,3015.51,350.08,331.53,27.07,0000 0000 0000 0000 000000
2014-04-30 01:27:32,0.04,2.18,0.00,14.71,21.59,23.04,6.09,32.00,1012.20,2059.95,2561.00,2817.99,3015.36,349.24,331.13,27.08,0000 0000 0000 0000 000000
2014-04-30 01:28:32,0.05,2.18,0.00,14.76,21.59,23.04,6.32,31.71,1012.21,2059.97,2561.00,2817.99,3015.31,349.81,331.61,27.08,0000 0000 0000 0000 000000
2014-04-30 01:29:32,0.02,2.18,0.00,14.77,21.59,23.05,6.18,31.63,1012.21,2059.97,2560.99,2817.99,3015.30,350.05,331.83,27.09,0000 0000 0000 0000 000000
2014-04-30 01:30:32,0.02,2.18,0.00,14.72,21.59,23.05,6.19,31.83,1012.22,2059.95,2560.98,2817.99,3015.15,350.50,332.31,27.10,0000 0000 0000 0000 000000
2014-04-30 01:31:33,0.01,2.18,0.00,14.72,21.59,23.07,6.16,31.79,1012.22,2059.96,2560.99,2817.99,3015.10,349.29,331.17,27.10,0000 0000 0000 0000 000000
2014-04-30 01:32:33,0.00,2.18,0.00,14.72,21.59,23.07,6.26,31.50,1012.22,2059.98,2560.97,2817.99,3015.11,350.59,332.41,27.11,0000 0000 0000 0000 000000
2014-04-30 01:33:33,0.01,2.18,0.00,14.67,21.59,23.10,6.21,31.58,1012.22,2059.97,2560.95,2817.99,3015.06,349.63,331.76,27.11,0000 0000 0000 0000 000000
2014-04-30 01:34:34,0.01,2.18,0.00,14.54,21.59,23.11,6.08,31.54,1012.22,2059.99,2560.91,2817.99,3015.04,349.86,331.96,27.12,0000 0000 0000 0000 000000
2014-04-30 01:35:34,0.01,2.18,0.00,14.53,21.59,23.08,6.16,31.83,1012.22,2059.99,2560.94,2817.98,3015.04,349.90,331.96,27.13,0000 0000 0000 0000 000000
2014-04-30 01:36:34,0.00,2.18,0.00,14.55,21.59,23.08,6.20,31.63,1012.22,2059.98,2560.95,2817.99,3015.04,350.24,332.53,27.13,0000 0000 0000 0000 000000
2014-04-30 01:37:34,-0.01,2.18,0.00,14.53,21.60,23.09,6.09,31.54,1012.22,2059.98,2560.90,2817.99,3015.02,349.37,331.68,27.14,0000 0000 0000 0000 000000
2014-04-30 01:38:35,0.01,2.18,0.00,14.56,21.60,23.08,6.23,31.58,1012.22,2059.97,2560.76,2817.97,3015.00,349.73,331.86,27.14,0000 0000 0000 0000 000000
2014-04-30 01:39:35,0.04,2.18,0.00,14.60,21.60,23.08,6.20,31.75,1012.22,2059.97,2560.55,2817.97,3015.00,350.37,332.22,27.15,0000 0000 0000 0000 000000
2014-04-30 01:40:35,0.03,2.18,0.00,14.64,21.61,23.08,6.18,31.63,1012.22,2059.96,2560.41,2817.93,3015.00,350.79,332.55,27.15,0000 0000 0000 0000 000000
2014-04-30 01:41:36,0.01,2.18,0.00,14.62,21.61,23.08,6.27,31.67,1012.22,2059.94,2560.29,2817.90,3015.00,351.12,333.03,27.16,0000 0000 0000 0000 000000
2014-04-30 01:42:36,0.03,2.18,0.00,14.68,21.61,23.11,6.19,31.58,1012.22,2059.94,2560.16,2817.64,3015.00,350.34,332.04,27.17,0000 0000 0000 0000 000000
2014-04-30 01:43:36,0.10,2.18,0.00,14.72,21.62,23.10,6.22,31.58,1012.22,2059.93,2560.08,2817.31,3014.98,350.79,332.57,27.17,0000 0000 0000 0000 000000
2014-04-30 01:44:36,0.08,2.18,0.00,14.81,21.62,23.05,6.14,31.63,1012.22,2059.91,2560.04,2817.26,3014.98,349.56,331.58,27.18,0000 0000 0000 0000 000000
2014-04-30 01:45:37,0.01,2.18,0.00,14.85,21.62,22.95,6.27,31.63,1012.22,2059.91,2560.02,2817.17,3014.97,351.00,332.64,27.18,0000 0000 0000 0000 000000
2014-04-30 01:46:37,0.03,2.18,0.00,14.85,21.62,22.98,6.15,31.67,1012.22,2059.93,2560.00,2817.11,3014.92,349.21,330.94,27.19,0000 0000 0000 0000 000000
2014-04-30 01:47:37,0.03,2.18,0.00,14.84,21.62,22.97,6.13,31.75,1012.22,2059.93,2559.98,2817.05,3014.75,349.36,331.42,27.20,0000 0000 0000 0000 000000
2014-04-30 01:48:38,0.04,2.18,0.00,14.75,21.62,22.94,5.98,31.67,1012.22,2059.96,2559.99,2817.02,3014.63,348.83,330.70,27.20,0000 0000 0000 0000 000000
2014-04-30 01:49:38,0.05,2.18,0.00,14.67,21.62,23.03,6.13,31.75,1012.22,2059.93,2559.99,2817.03,3014.41,350.19,332.07,27.21,0000 0000 0000 0000 000000
2014-04-30 01:50:38,0.02,2.18,0.00,14.67,21.62,23.10,6.18,31.54,1012.22,2059.91,2559.99,2817.01,3014.29,349.66,331.98,27.21,0000 0000 0000 0000 000000
2014-04-30 01:51:38,0.01,2.18,0.00,14.70,21.63,23.14,6.23,31.75,1012.22,2059.94,2559.99,2817.00,3014.23,349.40,331.04,27.22,0000 0000 0000 0000 000000
2014-04-30 01:52:39,0.01,2.18,0.00,14.70,21.64,23.12,6.27,31.71,1012.22,2059.94,2559.98,2817.00,3014.14,350.28,332.13,27.22,0000 0000 0000 0000 000000
2014-04-30 01:53:39,-0.00,2.18,0.00,14.68,21.64,23.10,6.19,31.71,1012.22,2059.89,2559.98,2817.00,3014.07,349.52,331.59,27.23,0000 0000 0000 0000 000000
2014-04-30 01:54:39,-0.01,2.18,0.00,14.69,21.64,23.11,6.24,31.67,1012.22,2059.86,2559.98,2817.00,3014.06,350.23,332.10,27.24,0000 0000 0000 0000 000000
2014-04-30 01:55:39,-0.01,2.18,0.00,14.67,21.64,23.13,6.08,31.63,1012.22,2059.87,2559.92,2817.00,3014.03,349.07,331.23,27.24,0000 0000 0000 0000 000000
2014-04-30 01:56:40,-0.01,2.18,0.00,14.70,21.64,23.13,6.17,31.71,1012.24,2059.78,2559.65,2816.99,3014.01,349.59,331.48,27.25,0000 0000 0000 0000 000000
2014-04-30 01:57:40,0.03,2.18,0.00,14.74,21.64,23.16,6.25,31.67,1012.22,2059.77,2559.31,2816.97,3014.00,350.18,332.00,27.25,0000 0000 0000 0000 000000
2014-04-30 01:58:40,0.04,2.18,0.00,14.74,21.64,23.16,6.11,31.83,1012.22,2059.76,2559.16,2816.98,3014.00,349.40,331.42,27.26,0000 0000 0000 0000 000000
2014-04-30 01:59:41,0.01,2.18,0.00,14.72,21.64,23.16,6.15,31.58,1012.22,2059.78,2559.14,2816.96,3014.00,349.15,331.04,27.27,0000 0000 0000 0000 000000
2014-04-30 02:00:41,0.05,2.18,0.00,14.70,21.64,23.15,6.25,31.54,1012.23,2059.70,2559.07,2816.89,3014.00,350.55,331.89,27.27,0000 0000 0000 0000 000000
2014-04-30 02:01:41,-0.02,2.18,0.00,14.74,21.65,23.16,6.15,31.63,1012.24,2059.65,2559.02,2816.72,3013.99,349.17,331.04,27.28,0000 0000 0000 0000 000000
2014-04-30 02:02:41,0.01,2.18,0.00,14.74,21.65,23.13,6.21,31.63,1012.22,2059.77,2559.02,2816.62,3013.98,349.45,331.91,27.28,0000 0000 0000 0000 000000
2014-04-30 02:03:42,0.09,2.18,0.00,14.66,21.65,23.12,6.07,31.83,1012.24,2059.70,2559.00,2816.37,3013.89,350.44,332.33,27.29,0000 0000 0000 0000 000000
2014-04-30 02:04:42,0.04,2.18,0.00,14.58,21.66,23.16,6.11,31.71,1012.22,2059.73,2559.00,2816.20,3013.76,349.71,331.74,27.30,0000 0000 0000 0000 000000
2014-04-30 02:05:42,0.09,2.18,0.00,14.60,21.67,23.17,6.22,31.42,1012.22,2059.76,2558.99,2816.13,3013.50,349.34,331.36,27.30,0000 0000 0000 0000 000000
2014-04-30 02:06:42,0.08,2.18,0.00,14.62,21.67,23.17,6.23,31.79,1012.22,2059.68,2558.99,2816.06,3013.24,349.96,331.93,27.31,0000 0000 0000 0000 000000
2014-04-30 02:07:43,0.00,2.18,0.00,14.65,21.67,23.17,6.18,31.67,1012.23,2059.70,2558.99,2816.02,3013.08,349.56,331.51,27.31,0000 0000 0000 0000 000000
2014-04-30 02:08:43,0.05,2.18,0.00,14.67,21.67,23.17,6.08,31.79,1012.22,2059.75,2558.89,2816.00,3013.05,348.92,331.01,27.32,0000 0000 0000 0000 000000
2014-04-30 02:09:43,0.08,2.18,0.00,14.73,21.67,23.17,6.03,31.67,1012.23,2059.73,2558.81,2816.00,3013.02,349.82,332.02,27.32,0000 0000 0000 0000 000000
2014-04-30 02:10:44,-0.01,2.18,0.00,14.82,21.67,23.16,6.16,31.71,1012.23,2059.66,2558.50,2816.00,3013.00,349.82,331.26,27.33,0000 0000 0000 0000 000000
2014-04-30 02:11:44,-0.02,2.18,0.00,14.83,21.67,23.17,6.24,31.83,1012.22,2059.57,2558.22,2816.00,3013.00,349.80,331.26,27.34,0000 0000 0000 0000 000000
2014-04-30 02:12:44,0.00,2.18,0.00,14.78,21.67,23.16,6.16,31.63,1012.23,2059.56,2558.09,2816.00,3013.00,350.01,332.08,27.34,0000 0000 0000 0000 000000
2014-04-30 02:13:44,0.04,2.18,0.00,14.80,21.67,23.21,6.12,31.75,1012.22,2059.66,2558.03,2815.99,3012.99,350.51,332.29,27.35,0000 0000 0000 0000 000000
2014-04-30 02:14:45,0.04,2.18,0.00,14.80,21.68,23.19,5.96,31.71,1012.22,2059.60,2558.01,2815.98,3012.97,349.41,331.19,27.35,0000 0000 0000 0000 000000
2014-04-30 02:15:45,-0.05,2.18,0.00,14.78,21.68,23.20,6.06,31.58,1012.23,2059.59,2558.00,2815.96,3012.98,350.17,331.87,27.36,0000 0000 0000 0000 000000
2014-04-30 02:16:45,0.06,2.18,0.00,14.82,21.69,23.20,6.26,31.67,1012.22,2059.60,2558.00,2815.87,3012.90,349.86,331.60,27.37,0000 0000 0000 0000 000000
2014-04-30 02:17:45,-0.01,2.18,0.00,14.81,21.69,23.14,6.26,31.75,1012.22,2059.45,2557.99,2815.62,3012.64,349.99,331.72,27.37,0000 0000 0000 0000 000000
2014-04-30 02:18:46,0.01,2.18,0.00,14.80,21.69,23.15,6.18,31.71,1012.22,2059.33,2557.94,2815.27,3012.35,349.76,331.63,27.38,0000 0000 0000 0000 000000
2014-04-30 02:19:46,0.06,2.19,0.00,14.75,21.69,23.19,6.13,31.71,1012.22,2059.28,2557.90,2815.13,3012.18,349.93,331.31,27.38,0000 0000 0000 0000 000000
2014-04-30 02:20:46,0.01,2.18,0.00,14.75,21.69,23.18,6.14,31.79,1012.22,2059.25,2557.85,2815.09,3012.08,349.64,331.47,27.39,0000 0000 0000 0000 000000
2014-04-30 02:21:46,0.00,2.19,0.00,14.76,21.69,23.19,6.21,31.71,1012.22,2059.32,2557.74,2815.06,3012.05,351.27,333.14,27.39,0000 0000 0000 0000 000000
2014-04-30 02:22:47,0.09,2.19,0.00,14.78,21.69,23.21,6.25,31.79,1012.22,2059.38,2557.57,2815.02,3012.03,350.87,332.59,27.40,0000 0000 0000 0000 000000
2014-04-30 02:23:47,0.12,2.19,0.00,14.76,21.69,23.19,6.13,31.71,1012.22,2059.33,2557.28,2815.00,3012.01,349.61,331.43,27.41,0000 0000 0000 0000 000000
2014-04-30 02:24:47,0.01,2.19,0.00,14.77,21.70,23.20,6.19,31.83,1012.22,2059.22,2557.10,2815.00,3012.00,350.96,332.70,27.41,0000 0000 0000 0000 000000
2014-04-30 02:25:48,-0.03,2.19,0.00,14.78,21.70,23.22,6.24,31.92,1012.22,2059.13,2557.04,2814.97,3012.00,349.97,331.73,27.42,0000 0000 0000 0000 000000
2014-04-30 02:26:48,-0.05,2.19,0.00,14.83,21.70,23.21,6.19,32.08,1012.22,2059.07,2557.00,2814.98,3011.97,349.81,331.55,27.42,0000 0000 0000 0000 000000
2014-04-30 02:27:48,-0.06,2.19,0.00,14.90,21.71,23.22,6.23,31.67,1012.22,2059.03,2556.98,2814.98,3011.91,350.57,331.75,27.43,0000 0000 0000 0000 000000
2014-04-30 02:28:48,-0.01,2.19,0.00,14.90,21.71,23.20,6.17,31.50,1012.23,2059.05,2556.97,2814.95,3011.85,350.75,331.92,27.44,0000 0000 0000 0000 000000
2014-04-30 02:29:49,0.04,2.19,0.00,14.91,21.72,23.19,6.23,31.54,1012.23,2059.12,2556.98,2814.90,3011.77,350.33,331.93,27.44,0000 0000 0000 0000 000000
2014-04-30 02:30:49,0.12,2.19,0.00,14.91,21.72,23.17,6.19,31.54,1012.24,2059.20,2556.87,2814.74,3011.50,350.52,332.33,27.45,0000 0000 0000 0000 000000
2014-04-30 02:31:49,0.16,2.19,0.00,14.91,21.72,23.11,6.09,31.71,1012.24,2059.16,2556.44,2814.38,3011.23,349.48,331.39,27.45,0000 0000 0000 0000 000000
2014-04-30 02:32:49,0.16,2.19,0.00,14.94,21.72,23.09,6.15,31.75,1012.22,2059.08,2556.17,2814.16,3011.09,349.44,331.05,27.46,0000 0000 0000 0000 000000
2014-04-30 02:33:50,0.08,2.19,0.00,14.92,21.72,23.18,6.17,31.50,1012.22,2059.06,2556.06,2814.07,3011.03,350.50,332.09,27.47,0000 0000 0000 0000 000000
2014-04-30 02:34:50,0.01,2.19,0.00,14.94,21.72,23.23,6.23,31.58,1012.24,2059.07,2556.02,2814.02,3011.01,350.02,331.76,27.47,0000 0000 0000 0000 000000
2014-04-30 02:35:50,0.03,2.19,0.00,14.83,21.72,23.24,6.26,31.46,1012.23,2059.07,2556.00,2814.00,3011.00,350.66,332.33,27.48,0000 0000 0000 0000 000000